FW7275 Weather Reports


Display with metric or nautical units.
time (UTC)temp
F
wind
direction
speed
MPH
gust
MPH
rain 1hr
in
rain 24hr
in
rain mn
in
humidity
%
barometer
mb
20210919085034 61 89 4.0 10.0 0.00 0.00 0.00 78
20210919084021 60 90 2.0 6.0 0.00 0.00 0.00 80
20210919083031 59 68 3.0 6.0 0.00 0.00 0.00 81
20210919082032 57 357 1.0 4.0 0.00 0.00 0.00 84
20210919081031 56 355 1.0 4.0 0.00 0.00 0.00 86
20210919080054 54 22 1.0 3.0 0.00 0.00 0.00 89
20210919075031 52 23 1.0 3.0 0.00 0.00 0.00 88
20210919074020 52 354 0.0 2.0 0.00 0.00 0.00 88
20210919073037 51 355 1.0 3.0 0.00 0.00 0.00 90
20210919072031 50 355 1.0 2.0 0.00 0.00 0.00 91
20210919071029 50 356 1.0 4.0 0.00 0.00 0.00 89
20210919070051 50 341 1.0 3.0 0.00 0.00 0.00 89
20210919065033 50 360 1.0 2.0 0.00 0.00 0.00 89
20210919064033 50 3 0.0 1.0 0.00 0.00 0.00 89
20210919063024 49 4 0.0 1.0 0.00 0.00 0.00 89
20210919062034 46 5 1.0 2.0 0.00 0.00 0.00 91
20210919061020 46 205 0.0 1.0 0.00 0.00 0.00 92
20210919060052 44 208 0.0 1.0 0.00 0.00 0.00 93
20210919055033 44 207 0.0 0.0 0.00 0.00 0.00 94
20210919054034 43 247 0.0 0.0 0.00 0.00 0.00 94
20210919053026 42 250 0.0 0.0 0.00 0.00 0.00 95
20210919052032 42 247 0.0 1.0 0.00 0.00 0.00 94
20210919051032 42 254 0.0 0.0 0.00 0.00 0.00 94
20210919050051 42 250 0.0 1.0 0.00 0.00 0.00 94
20210919045035 42 253 0.0 1.0 0.00 0.00 0.00 94
20210919044030 42 250 0.0 1.0 0.00 0.00 0.00 94
20210919043032 42 250 0.0 0.0 0.00 0.00 0.00 94
20210919042023 42 254 0.0 0.0 0.00 0.00 0.00 94
20210919041024 42 247 0.0 0.0 0.00 0.00 0.00 94
20210919040039 42 247 0.0 0.0 0.00 0.00 0.00 94
20210919035033 42 244 0.0 0.0 0.00 0.00 0.00 94
20210919034026 42 247 0.0 1.0 0.00 0.00 0.00 94
20210919033036 43 254 0.0 0.0 0.00 0.00 0.00 94
20210919032028 43 250 0.0 0.0 0.00 0.00 0.00 94
20210919031019 43 245 0.0 1.0 0.00 0.00 0.00 93
20210919030045 43 243 0.0 0.0 0.00 0.00 0.00 93
20210919025025 43 242 0.0 1.0 0.00 0.00 0.00 93
20210919024029 44 248 0.0 1.0 0.00 0.00 0.00 93
20210919023029 44 245 0.0 0.0 0.00 0.00 0.00 93
20210919022018 44 251 0.0 0.0 0.00 0.00 0.00 93
20210919021032 44 251 0.0 1.0 0.00 0.00 0.00 93
20210919020037 45 254 0.0 0.0 0.00 0.00 0.00 93
20210919015021 45 253 0.0 0.0 0.00 0.00 0.00 93
20210919014022 45 254 0.0 0.0 0.00 0.00 0.00 93
20210919013027 45 250 0.0 0.0 0.00 0.00 0.00 93
20210919012023 45 244 0.0 0.0 0.00 0.00 0.00 93
20210919011026 46 244 0.0 0.0 0.00 0.00 0.00 92
20210919010041 46 244 0.0 0.0 0.00 0.00 0.00 92
20210919005022 46 252 0.0 0.0 0.00 0.00 0.00 92
20210919004027 46 254 0.0 0.0 0.00 0.00 0.00 92
20210919003027 46 245 0.0 0.0 0.00 0.00 0.00 91
20210919002030 47 248 0.0 0.0 0.00 0.00 0.00 91
20210919001034 47 254 0.0 0.0 0.00 0.00 0.00 91
20210919000116 47 245 0.0 0.0 0.00 0.00 0.00 91
20210918235034 47 244 0.0 0.0 0.00 0.00 0.00 91
20210918234030 47 242 0.0 0.0 0.00 0.00 0.00 91
20210918233027 48 246 0.0 0.0 0.00 0.00 0.00 91
20210918232035 48 253 0.0 1.0 0.00 0.00 0.00 91
20210918231033 48 249 0.0 1.0 0.00 0.00 0.00 90
20210918225030 48 246 0.0 0.0 0.00 0.00 0.00 90
20210918224032 48 246 0.0 0.0 0.00 0.00 0.00 90
20210918223025 49 250 0.0 0.0 0.00 0.00 0.00 89
20210918222025 49 253 0.0 0.0 0.00 0.00 0.00 89
20210918221020 49 252 0.0 1.0 0.00 0.00 0.00 89
20210918220101 49 243 0.0 0.0 0.00 0.00 0.00 89
20210918215022 50 250 0.0 0.0 0.00 0.00 0.00 89
20210918214025 50 245 0.0 1.0 0.00 0.00 0.00 89
20210918213022 50 245 0.0 0.0 0.00 0.00 0.00 89
20210918212030 50 252 0.0 0.0 0.00 0.00 0.00 89
20210918211028 51 246 0.0 0.0 0.00 0.00 0.00 89
20210918210045 51 248 0.0 0.0 0.00 0.00 0.00 89
20210918205033 51 252 0.0 0.0 0.00 0.00 0.00 88
20210918204026 51 251 0.0 0.0 0.00 0.00 0.00 88
20210918203024 51 246 0.0 1.0 0.00 0.00 0.00 88
20210918202246 52 251 0.0 1.0 0.00 0.00 0.00 87
20210918201022 52 243 0.0 0.0 0.00 0.00 0.00 87
20210918200107 52 244 0.0 0.0 0.00 0.00 0.00 87
20210918195024 52 245 0.0 0.0 0.00 0.00 0.00 87
20210918194026 53 246 0.0 0.0 0.00 0.00 0.00 87
20210918193033 53 247 0.0 1.0 0.00 0.00 0.00 87
20210918192032 54 254 0.0 1.0 0.00 0.00 0.00 86
20210918191021 54 252 1.0 2.0 0.00 0.00 0.00 86
20210918190038 54 220 0.0 2.0 0.00 0.00 0.00 85
20210918185021 55 94 0.0 2.0 0.00 0.00 0.00 83
20210918184033 55 93 0.0 0.0 0.00 0.00 0.00 82
20210918183036 56 85 0.0 1.0 0.00 0.00 0.00 82
20210918182024 56 90 0.0 0.0 0.00 0.00 0.00 81
20210918181033 57 93 0.0 1.0 0.00 0.00 0.00 80
20210918180055 58 86 0.0 0.0 0.00 0.00 0.00 79
20210918175028 58 95 0.0 0.0 0.00 0.00 0.00 79
20210918174033 60 96 0.0 0.0 0.00 0.00 0.00 77
20210918173028 60 86 0.0 0.0 0.00 0.00 0.00 76
20210918172034 62 89 0.0 1.0 0.00 0.00 0.00 73
20210918171020 62 86 0.0 1.0 0.00 0.00 0.00 72
20210918170053 63 86 0.0 1.0 0.00 0.00 0.00 71
20210918165031 64 85 1.0 2.0 0.00 0.00 0.00 70
20210918164026 65 72 0.0 1.0 0.00 0.00 0.00 62
20210918163035 65 62 0.0 1.0 0.00 0.00 0.00 60
20210918162031 66 74 0.0 2.0 0.00 0.00 0.00 59
20210918161021 66 41 1.0 3.0 0.00 0.00 0.00 56
20210918160037 66 70 1.0 3.0 0.00 0.00 0.00 55
20210918155019 66 355 2.0 4.0 0.00 0.00 0.00 55
20210918154035 67 358 1.0 4.0 0.00 0.00 0.00 57
20210918153035 67 69 1.0 2.0 0.00 0.00 0.00 57
20210918152030 67 67 2.0 4.0 0.00 0.00 0.00 57
20210918151027 67 69 2.0 4.0 0.00 0.00 0.00 57
20210918150124 67 63 2.0 4.0 0.00 0.00 0.00 56
20210918145034 67 39 1.0 4.0 0.00 0.00 0.00 57
20210918144036 67 336 2.0 6.0 0.00 0.00 0.00 59
20210918143025 67 344 1.0 5.0 0.00 0.00 0.00 58
20210918142028 67 334 1.0 3.0 0.00 0.00 0.00 60
20210918141022 67 340 1.0 4.0 0.00 0.00 0.00 57
20210918140054 67 66 0.0 2.0 0.00 0.00 0.00 58
20210918135035 67 343 1.0 4.0 0.00 0.00 0.00 59
20210918134035 67 4 3.0 6.0 0.00 0.00 0.00 59
20210918133028 68 69 4.0 8.0 0.00 0.00 0.00 57
20210918132018 68 62 2.0 5.0 0.00 0.00 0.00 56
20210918131034 68 69 2.0 5.0 0.00 0.00 0.00 55
20210918130102 69 228 1.0 3.0 0.00 0.00 0.00 57
20210918125030 69 226 1.0 4.0 0.00 0.00 0.00 56
20210918124028 69 116 2.0 5.0 0.00 0.00 0.00 55
20210918123031 69 110 2.0 5.0 0.00 0.00 0.00 54
20210918122019 70 199 1.0 6.0 0.00 0.00 0.00 57
20210918121024 70 309 1.0 3.0 0.00 0.00 0.00 54
20210918120102 70 311 2.0 4.0 0.00 0.00 0.00 57
20210918115018 70 41 2.0 6.0 0.00 0.00 0.00 54
20210918114032 70 250 1.0 3.0 0.00 0.00 0.00 54
20210918113028 70 357 2.0 4.0 0.00 0.00 0.00 54
20210918112025 70 94 2.0 4.0 0.00 0.00 0.00 55
20210918111033 70 46 1.0 4.0 0.00 0.00 0.00 53
20210918110050 70 48 2.0 5.0 0.00 0.00 0.00 58
20210918105027 69 354 2.0 5.0 0.00 0.00 0.00 60
20210918104024 69 344 2.0 4.0 0.00 0.00 0.00 60
20210918103023 69 64 1.0 4.0 0.00 0.00 0.00 60
20210918102018 68 90 1.0 5.0 0.00 0.00 0.00 62
20210918101020 67 51 2.0 5.0 0.00 0.00 0.00 62
20210918100104 68 72 2.0 3.0 0.00 0.00 0.00 63
20210918095025 67 338 1.0 3.0 0.00 0.00 0.00 66
20210918094025 68 223 1.0 4.0 0.00 0.00 0.00 64
20210918093036 67 225 1.0 2.0 0.00 0.00 0.00 68
20210918092025 67 225 0.0 1.0 0.00 0.00 0.00 68
20210918091031 66 231 1.0 3.0 0.00 0.00 0.00 71